Regional Weather Roundup
Issued by NWS Binghamton, NY

Home | Current Version | Previous Version | Text Only | Print | Product List | Glossary On
Versions: 1 2 3 4 5 6 7 8 9 10 11 12 13 14 15 16 17 18 19 20 21 22 23 24 25 26 27 28 29 30 31 32 33 34 35 36 37 38 39 40 41 42 43 44 45 46 47 48 49 50
001
ASUS41 KBGM 201710
RWRBGM

REGIONAL WEATHER ROUNDUP
NATIONAL WEATHER SERVICE BINGHAMTON NY
100 PM EDT WED SEP 20 2017

Note: "fair" indicates few or no clouds below 12,000 feet with no
significant weather and/or obstructions to visibility.

* = Station(s) that does not report precipitation, such as rain,
snow, etc, also no thunder or fog.

NYZ009-015>018-022>025-036-037-044>046-055>057-062-201800
...Central New York...

CITY           SKY/WX    TMP DP  RH WIND       PRES   REMARKS
Binghamton     MOSUNNY   76  60  57 N7        30.03F
Cortland       FAIR      77  61  57 N6        30.03F
Dansville      SUNNY     79  63  57 NW10      30.04F
Elmira           N/A     80  63  55 NE8       30.01F
Seneca Falls   MOSUNNY   77  64  65 NE6       30.03S
Ithaca         MOSUNNY   74  64  71 NW14      30.04S
Hamilton       SUNNY     77  57  50 N5        30.03F
Monticello     CLOUDY    75  62  64 NW12G20   29.99F
Oneonta        SUNNY     73 N/A N/A NE8       30.04F
Penn Yan       MOSUNNY   78  63  59 N5        30.05S
Rome           SUNNY     79  63  57 W8        30.01F
Sidney         MOSUNNY   75  63  64 E3        30.01F
Syracuse       MOSUNNY   78  63  59 VRB5      30.00F
$$

PAZ038>040-043-044-047-048-072-201800
...Northeast Pennsylvania...

CITY           SKY/WX    TMP DP  RH WIND       PRES   REMARKS
Hazleton         N/A     79  61  53 N7        30.04S
Scranton       SUNNY     82  60  47 N10       29.98F
$$
&&
KEY
WCI = Wind Chill Index
VSB = Visibility
HX  = Heat Index
$$




USA.gov is the U.S. government's official web portal to all federal, state and local government web resources and services.